1514743200.25,19579,7.38,72988.0,-2.59,-3.35,-3.39,0,*51
1514743201.44,19580,7.38,72992.5,-2.57,-3.35,-3.35,0,*55
1514743202.67,19581,7.38,72996.8,-2.59,-3.39,-3.35,0,*56
1514743203.89,19582,7.38,72998.8,-2.59,-3.35,-3.35,0,*59
1514743205.12,19583,7.38,72996.3,-2.59,-3.39,-3.39,0,*58
1514743206.31,19584,7.38,72990.8,-2.57,-3.39,-3.35,0,*5D
1514743207.51,19585,7.38,72992.3,-2.57,-3.39,-3.35,0,*5C
1514743208.75,19586,7.38,72988.5,-2.59,-3.43,-3.39,0,*50
1514743209.95,19587,7.38,72986.0,-2.57,-3.39,-3.39,0,*52
1514743211.17,19588,7.38,72986.8,-2.59,-3.39,-3.39,0,*53
1514743212.39,19589,7.38,72984.3,-2.59,-3.39,-3.39,0,*52
1514743213.59,19590,7.38,72986.3,-2.57,-3.31,-3.31,0,*54
1514743214.81,19591,7.38,72980.5,-2.59,-3.27,-3.27,0,*5B
1514743216.0,19592,7.38,72984.3,-2.57,-3.23,-3.31,0,*55
1514743217.23,19593,7.38,72978.5,-2.59,-3.27,-3.35,0,*5A
1514743218.45,19594,7.38,72980.3,-2.59,-3.39,-3.27,0,*51
1514743219.68,19595,7.38,72978.0,-2.59,-3.35,-3.27,0,*5C
1514743220.87,19596,7.38,72974.0,-2.57,-3.35,-3.35,0,*52
1514743222.1,19597,7.38,72976.8,-2.55,-3.27,-3.31,0,*56
1514743223.32,19598,7.38,72982.8,-2.59,-3.35,-3.35,0,*52
1514743224.51,19599,7.38,72986.3,-2.57,-3.35,-3.31,0,*59
1514743225.7,19600,7.38,72990.3,-2.57,-3.31,-3.31,0,*5E
1514743226.9,19601,7.38,72982.0,-2.57,-3.35,-3.35,0,*5F
1514743228.09,19602,7.38,72982.3,-2.57,-3.35,-3.39,0,*50
1514743229.31,19603,7.38,72980.0,-2.57,-3.39,-3.47,0,*54
1514743230.58,19604,7.38,72980.8,-2.59,-3.51,-3.43,0,*57
1514743231.84,19605,7.38,72984.3,-2.59,-3.43,-3.43,0,*55
1514743233.08,19606,7.38,72974.3,-2.57,-3.47,-3.47,0,*58
1514743234.35,19607,7.38,72980.3,-2.59,-3.51,-3.51,0,*57
1514743235.62,19608,7.38,72976.5,-2.59,-3.51,-3.51,0,*58
1514743236.89,19609,7.38,72980.0,-2.59,-3.43,-3.43,0,*59
1514743238.15,19610,7.38,72976.0,-2.59,-3.43,-3.43,0,*51
1514743239.43,19611,7.38,72980.0,-2.59,-3.51,-3.43,0,*53
1514743240.67,19612,7.38,72978.3,-2.59,-3.43,-3.39,0,*5E
1514743241.87,19613,7.38,72986.8,-2.57,-3.39,-3.35,0,*50
1514743243.13,19614,7.38,72982.0,-2.59,-3.55,-3.51,0,*51
1514743244.38,19615,7.38,72972.3,-2.59,-3.75,-3.67,0,*57
1514743245.59,19616,7.38,72974.3,-2.61,-3.79,-3.75,0,*50
1514743246.83,19617,7.38,72972.5,-2.59,-3.75,-3.67,0,*55
1514743248.07,19618,7.38,72970.0,-2.59,-3.79,-3.75,0,*55
1514743249.33,19619,7.38,72964.3,-2.59,-3.55,-3.55,0,*58
1514743250.57,19620,7.38,72966.0,-2.61,-3.51,-3.55,0,*5D
1514743251.81,19621,7.38,72962.3,-2.61,-3.51,-3.43,0,*5B
1514743253.08,19622,7.38,72968.3,-2.59,-3.55,-3.63,0,*55
1514743254.32,19623,7.38,72964.3,-2.61,-3.63,-3.55,0,*5F
1514743255.56,19624,7.38,72970.0,-2.61,-3.55,-3.51,0,*59
1514743256.82,19625,7.38,72968.3,-2.59,-3.43,-3.43,0,*57
1514743258.09,19626,7.38,72964.0,-2.59,-3.43,-3.43,0,*54
1514743259.36,19627,7.38,72958.5,-2.59,-3.43,-3.43,0,*55
1514743260.63,19628,7.38,72954.0,-2.59,-3.51,-3.43,0,*59
1514743261.87,19629,7.38,72958.3,-2.61,-3.51,-3.55,0,*54
1514743263.11,19630,7.38,72970.3,-2.61,-3.55,-3.55,0,*58
1514743264.35,19631,7.38,72970.3,-2.61,-3.43,-3.43,0,*59
1514743265.61,19632,7.38,72972.5,-2.63,-3.47,-3.47,0,*58
1514743266.85,19633,7.38,72972.0,-2.61,-3.43,-3.51,0,*58
1514743268.12,19634,7.38,72978.5,-2.59,-3.43,-3.43,0,*57
1514743269.37,19635,7.38,72980.0,-2.61,-3.51,-3.43,0,*5E
1514743270.61,19636,7.38,72982.3,-2.61,-3.43,-3.51,0,*5D
1514743271.85,19637,7.38,72984.5,-2.61,-3.55,-3.63,0,*5A
1514743273.09,19638,7.38,72986.3,-2.61,-3.63,-3.63,0,*50
1514743274.33,19639,7.38,72974.5,-2.61,-3.63,-3.63,0,*51
1514743275.6,19640,7.38,72976.5,-2.63,-3.59,-3.59,0,*5D
1514743276.84,19641,7.38,72966.8,-2.61,-3.51,-3.55,0,*5A
1514743278.11,19642,7.38,72962.0,-2.63,-3.55,-3.55,0,*5F
1514743279.35,19643,7.38,72964.8,-2.61,-3.55,-3.51,0,*58
1514743280.59,19644,7.38,72968.3,-2.61,-3.43,-3.51,0,*58
1514743281.83,19645,7.38,72966.5,-2.61,-3.43,-3.43,0,*5A
1514743283.1,19646,7.38,72974.8,-2.59,-3.51,-3.43,0,*51
1514743284.36,19647,7.38,72972.5,-2.63,-3.55,-3.47,0,*59
1514743285.61,19648,7.38,72970.3,-2.61,-3.51,-3.43,0,*54
1514743286.85,19649,7.38,72972.5,-2.61,-3.43,-3.43,0,*56
1514743288.09,19650,7.38,72978.8,-2.61,-3.43,-3.43,0,*5E
1514743289.33,19651,7.38,72978.0,-2.61,-3.43,-3.43,0,*5F
1514743290.6,19652,7.38,72980.0,-2.63,-3.47,-3.47,0,*5E
1514743291.82,19653,7.38,72980.8,-2.61,-3.43,-3.39,0,*50
1514743293.06,19654,7.38,72976.3,-2.61,-3.43,-3.43,0,*5A
1514743294.33,19655,7.38,72986.0,-2.63,-3.43,-3.43,0,*59
1514743295.55,19656,7.38,72986.8,-2.61,-3.43,-3.39,0,*55
1514743296.74,19657,7.38,72988.3,-2.61,-3.39,-3.39,0,*59
1514743297.94,19658,7.38,72994.8,-2.61,-3.35,-3.35,0,*56
1514743299.14,19659,7.38,72996.5,-2.61,-3.39,-3.39,0,*57
1514743300.34,19660,7.38,72992.5,-2.61,-3.39,-3.39,0,*5D
1514743301.58,19661,7.38,72992.0,-2.61,-3.43,-3.43,0,*5C
1514743302.82,19662,7.38,72994.8,-2.61,-3.43,-3.43,0,*5F
1514743304.02,19663,7.38,72996.5,-2.61,-3.39,-3.39,0,*5E
1514743305.22,19664,7.38,73002.0,-2.61,-3.39,-3.39,0,*59
1514743306.44,19665,7.38,72996.8,-2.61,-3.43,-3.39,0,*55
1514743307.68,19666,7.38,72996.0,-2.61,-3.51,-3.51,0,*5B
1514743308.92,19667,7.38,73000.0,-2.61,-3.51,-3.43,0,*59
1514743310.16,19668,7.38,73000.5,-2.61,-3.55,-3.43,0,*52
1514743311.43,19669,7.38,72994.0,-2.59,-3.55,-3.51,0,*5B
1514743312.67,19670,7.38,72992.3,-2.61,-3.43,-3.43,0,*5C
1514743313.91,19671,7.38,72990.0,-2.61,-3.43,-3.43,0,*5D
1514743315.18,19672,7.38,72986.0,-2.63,-3.55,-3.55,0,*5C
1514743316.44,19673,7.38,72982.8,-2.59,-3.43,-3.43,0,*54
1514743317.71,19674,7.38,72980.8,-2.59,-3.43,-3.43,0,*53
1514743318.98,19675,7.38,72980.0,-2.59,-3.43,-3.43,0,*52
1514743320.2,19676,7.38,72984.5,-2.61,-3.43,-3.39,0,*57
1514743321.47,19677,7.38,72982.0,-2.63,-3.47,-3.43,0,*5D
1514743322.67,19678,7.38,72972.5,-2.61,-3.39,-3.39,0,*54
1514743323.89,19679,7.38,72972.3,-2.59,-3.39,-3.39,0,*5E
1514743325.11,19680,7.38,72974.5,-2.59,-3.39,-3.39,0,*58
1514743326.31,19681,7.38,72970.5,-2.61,-3.39,-3.39,0,*52
1514743327.51,19682,7.38,72972.3,-2.61,-3.35,-3.35,0,*51
1514743328.73,19683,7.38,72964.5,-2.61,-3.39,-3.43,0,*5D
1514743329.95,19684,7.38,72964.3,-2.61,-3.39,-3.43,0,*5A
1514743331.19,19685,7.38,72960.5,-2.61,-3.51,-3.43,0,*55
1514743332.44,19686,7.38,72958.8,-2.61,-3.51,-3.43,0,*56
1514743333.68,19687,7.44,72960.0,-2.61,-3.51,-3.51,0,*54
1514743334.92,19688,7.38,72958.0,-2.61,-3.51,-3.55,0,*5F
1514743336.16,19689,7.38,72962.5,-2.61,-3.43,-3.43,0,*5A
1514743337.4,19690,7.38,72960.5,-2.61,-3.43,-3.43,0,*52
1514743338.62,19691,7.38,72960.8,-2.61,-3.39,-3.43,0,*5E
1514743339.82,19692,7.38,72964.3,-2.61,-3.39,-3.39,0,*50
1514743341.02,19693,7.38,72962.8,-2.61,-3.39,-3.39,0,*51
1514743342.24,19694,7.38,72964.5,-2.61,-3.39,-3.43,0,*5B
1514743343.48,19695,7.38,72962.3,-2.61,-3.43,-3.51,0,*54
1514743344.75,19696,7.38,72960.5,-2.59,-3.43,-3.43,0,*5F
1514743345.99,19697,7.38,72960.0,-2.61,-3.51,-3.43,0,*56
1514743347.23,19698,7.38,72968.0,-2.61,-3.51,-3.51,0,*5A
1514743348.48,19699,7.38,72970.5,-2.61,-3.51,-3.43,0,*58
1514743349.72,19700,7.38,72966.5,-2.61,-3.43,-3.43,0,*5A
1514743350.96,19701,7.38,72978.8,-2.61,-3.43,-3.43,0,*5B
1514743352.2,19702,7.38,72972.3,-2.61,-3.43,-3.43,0,*58
1514743353.44,19703,7.38,72976.5,-2.61,-3.43,-3.43,0,*59
1514743354.68,19704,7.38,72974.8,-2.61,-3.43,-3.43,0,*5E
1514743355.93,19705,7.38,72976.3,-2.61,-3.51,-3.43,0,*5C
1514743357.17,19706,7.38,72976.3,-2.61,-3.43,-3.43,0,*5C
1514743358.41,19707,7.38,72972.0,-2.61,-3.43,-3.43,0,*5D
1514743359.65,19708,7.38,72978.8,-2.61,-3.51,-3.51,0,*52
1514743360.89,19709,7.38,72982.3,-2.61,-3.43,-3.43,0,*53
1514743362.14,19710,7.38,72986.3,-2.61,-3.47,-3.43,0,*5F
1514743363.41,19711,7.38,72984.8,-2.63,-3.43,-3.43,0,*58
1514743364.65,19712,7.38,72980.5,-2.63,-3.43,-3.39,0,*56
1514743365.92,19713,7.38,72984.5,-2.63,-3.43,-3.43,0,*5A
1514743367.12,19714,7.38,72982.0,-2.61,-3.35,-3.35,0,*5F
1514743368.32,19715,7.38,72982.5,-2.61,-3.35,-3.35,0,*5E
1514743369.52,19716,7.38,72978.5,-2.61,-3.35,-3.35,0,*5D
1514743370.71,19717,7.38,72980.0,-2.61,-3.35,-3.35,0,*5C
1514743371.91,19718,7.38,72982.3,-2.61,-3.35,-3.35,0,*53
1514743373.11,19719,7.38,72978.0,-2.61,-3.27,-3.35,0,*51
1514743374.31,19720,7.38,72976.8,-2.61,-3.23,-3.27,0,*5C
1514743375.49,19721,7.38,72976.0,-2.61,-3.23,-3.23,0,*59
1514743376.68,19722,7.38,72978.5,-2.61,-3.27,-3.23,0,*5E
1514743377.9,19723,7.38,72978.0,-2.59,-3.27,-3.23,0,*54
1514743379.12,19724,7.38,72978.8,-2.59,-3.15,-3.23,0,*52
1514743380.34,19725,7.38,72976.3,-2.59,-3.15,-3.11,0,*52
1514743381.56,19726,7.38,72982.0,-2.59,-3.15,-3.23,0,*50
1514743382.77,19727,7.38,72976.3,-2.59,-3.23,-3.23,0,*54
1514743383.98,19728,7.38,72976.3,-2.59,-3.23,-3.15,0,*5E
1514743385.2,19729,7.38,72982.3,-2.59,-3.23,-3.23,0,*5A
1514743386.42,19730,7.38,72980.3,-2.59,-3.27,-3.27,0,*52
1514743387.65,19731,7.38,72980.0,-2.59,-3.35,-3.35,0,*53
1514743388.87,19732,7.38,72980.5,-2.59,-3.35,-3.35,0,*50
1514743390.07,19733,7.38,72980.8,-2.57,-3.35,-3.35,0,*5F
1514743391.29,19734,7.38,72980.0,-2.59,-3.39,-3.39,0,*56
1514743392.52,19735,7.38,72986.5,-2.59,-3.39,-3.35,0,*5B
1514743393.74,19736,7.38,72988.3,-2.59,-3.39,-3.35,0,*58
1514743394.96,19737,7.38,72990.0,-2.59,-3.39,-3.39,0,*55
1514743396.19,19738,7.38,72986.8,-2.59,-3.39,-3.39,0,*5A
1514743397.38,19739,7.38,72988.8,-2.57,-3.35,-3.31,0,*51
1514743398.57,19740,7.38,72984.3,-2.57,-3.31,-3.31,0,*5B
1514743399.8,19741,7.38,72982.0,-2.59,-3.39,-3.39,0,*54
1514743400.99,19742,7.38,72986.3,-2.57,-3.31,-3.35,0,*5D
1514743402.19,19743,7.38,72984.0,-2.57,-3.35,-3.35,0,*58
1514743403.38,19744,7.38,72988.5,-2.57,-3.35,-3.35,0,*5F
1514743404.58,19745,7.38,72988.5,-2.57,-3.31,-3.35,0,*5A
1514743405.8,19746,7.38,72988.3,-2.59,-3.23,-3.03,0,*51
1514743406.98,19747,7.38,72986.8,-2.57,-3.23,-3.23,0,*5C
1514743408.21,19748,7.38,72990.5,-2.59,-3.27,-3.27,0,*5D
1514743409.43,19749,7.38,72992.0,-2.59,-3.35,-3.27,0,*5F
1514743410.66,19750,7.38,72986.8,-2.59,-3.39,-3.35,0,*58
1514743411.89,19751,7.38,72984.3,-2.59,-3.27,-3.27,0,*55
1514743413.11,19752,7.38,72982.5,-2.59,-3.39,-3.39,0,*56
1514743414.33,19753,7.38,72982.8,-2.59,-3.39,-3.39,0,*57
1514743415.56,19754,7.38,72978.0,-2.59,-3.39,-3.35,0,*5C
1514743416.78,19755,7.38,72976.8,-2.59,-3.39,-3.35,0,*5D
1514743418.01,19756,7.44,72972.0,-2.59,-3.35,-3.35,0,*52
1514743419.23,19757,7.38,72968.8,-2.59,-3.35,-3.39,0,*5F
1514743420.45,19758,7.38,72968.3,-2.59,-3.35,-3.39,0,*50
1514743421.68,19759,7.38,72978.5,-2.59,-3.35,-3.35,0,*5D
1514743422.9,19760,7.38,72982.3,-2.59,-3.39,-3.35,0,*5B
1514743424.1,19761,7.38,72986.5,-2.57,-3.35,-3.35,0,*58
1514743425.29,19762,7.38,72984.0,-2.57,-3.39,-3.39,0,*5B
1514743426.49,19763,7.44,72988.3,-2.57,-3.35,-3.39,0,*56
1514743427.73,19764,7.44,72988.5,-2.59,-3.39,-3.43,0,*5E
1514743428.93,19765,7.38,72986.3,-2.57,-3.35,-3.39,0,*50
1514743430.17,19766,7.38,72982.8,-2.59,-3.39,-3.51,0,*5F
1514743431.44,19767,7.38,72984.3,-2.59,-3.51,-3.43,0,*53
1514743432.71,19768,7.44,72984.0,-2.59,-3.43,-3.43,0,*5F
1514743433.98,19769,7.38,72984.5,-2.59,-3.43,-3.43,0,*5E
1514743435.24,19770,7.44,72986.5,-2.59,-3.43,-3.43,0,*56
1514743436.49,19771,7.38,72984.5,-2.59,-3.43,-3.39,0,*5A
1514743437.74,19772,7.44,72982.0,-2.59,-3.43,-3.39,0,*59
1514743438.98,19773,7.38,72976.3,-2.59,-3.43,-3.39,0,*58
1514743440.21,19774,7.44,72980.8,-2.59,-3.39,-3.39,0,*52
1514743441.43,19775,7.38,72978.0,-2.59,-3.39,-3.35,0,*5F
1514743442.65,19776,7.44,72982.5,-2.59,-3.35,-3.35,0,*50
1514743443.88,19777,7.38,72980.5,-2.59,-3.35,-3.35,0,*51
1514743445.07,19778,7.38,72984.3,-2.57,-3.19,-3.11,0,*58
1514743446.3,19779,7.38,72984.0,-2.59,-3.15,-3.03,0,*58
1514743447.48,19780,7.38,72984.0,-2.57,-3.19,-3.19,0,*57
1514743448.71,19781,7.38,72990.0,-2.59,-3.27,-3.27,0,*58
1514743449.93,19782,7.44,72992.8,-2.59,-3.23,-3.31,0,*58
1514743451.15,19783,7.38,72990.8,-2.59,-3.35,-3.35,0,*5A
1514743452.35,19784,7.38,72986.5,-2.57,-3.35,-3.35,0,*53
1514743453.54,19785,7.44,72990.0,-2.57,-3.39,-3.39,0,*52
1514743454.81,19786,7.38,72994.0,-2.59,-3.43,-3.43,0,*5F
1514743456.07,19787,7.44,72984.3,-2.59,-3.43,-3.55,0,*59
1514743457.31,19788,7.44,72978.8,-2.57,-3.47,-3.47,0,*5F
1514743458.57,19789,7.38,72978.3,-2.59,-3.67,-3.67,0,*50
1514743459.84,19790,7.38,72972.0,-2.59,-3.63,-3.55,0,*5D
1514743461.08,19791,7.38,72974.0,-2.61,-3.51,-3.51,0,*52
1514743462.33,19792,7.44,72976.0,-2.61,-3.51,-3.51,0,*51
1514743463.59,19793,7.44,72970.8,-2.59,-3.55,-3.55,0,*5B
1514743464.86,19794,7.38,72962.5,-2.59,-3.51,-3.51,0,*5C
1514743466.13,19795,7.44,72966.8,-2.59,-3.51,-3.51,0,*5D
1514743467.37,19796,7.38,72968.8,-2.57,-3.59,-3.51,0,*58
1514743468.64,19797,7.38,72970.8,-2.59,-3.63,-3.63,0,*5F
1514743469.9,19798,7.44,72972.3,-2.59,-3.55,-3.55,0,*50
1514743471.17,19799,7.44,72976.3,-2.59,-3.55,-3.43,0,*56
1514743472.44,19800,7.38,72968.0,-2.59,-3.51,-3.51,0,*5E
1514743473.68,19801,7.38,72960.3,-2.61,-3.51,-3.63,0,*55
1514743474.94,19802,7.38,72960.3,-2.59,-3.55,-3.55,0,*5C
1514743476.21,19803,7.44,72968.5,-2.59,-3.51,-3.55,0,*59
1514743477.45,19804,7.44,72974.5,-2.61,-3.43,-3.51,0,*52
1514743478.71,19805,7.44,72972.8,-2.59,-3.51,-3.55,0,*5F
1514743479.98,19806,7.38,72968.8,-2.59,-3.55,-3.63,0,*5D
1514743481.18,19807,7.38,72966.3,-2.61,-3.79,-3.79,0,*52
1514743482.39,19808,7.38,72964.5,-2.61,-3.83,-3.91,0,*5E
1514743483.59,19809,7.38,72964.0,-2.61,-3.79,-3.79,0,*5C
1514743484.82,19810,7.38,72966.0,-2.63,-3.95,-3.95,0,*56
1514743486.04,19811,7.38,72956.8,-2.63,-4.05,-4.05,0,*57
1514743487.26,19812,7.44,72958.5,-2.63,-4.17,-4.17,0,*54
1514743488.46,19813,7.44,72954.8,-2.61,-4.13,-4.13,0,*57
1514743489.7,19814,7.44,72966.0,-2.63,-4.21,-4.21,0,*52
1514743490.93,19815,7.44,72968.0,-2.63,-4.21,-4.21,0,*53
1514743492.13,19816,7.38,72962.5,-2.65,-4.21,-4.17,0,*53
1514743493.32,19817,7.38,72962.0,-2.65,-4.17,-4.17,0,*57
1514743494.52,19818,7.44,72960.3,-2.65,-4.09,-4.09,0,*58
1514743495.71,19819,7.44,72964.5,-2.65,-4.17,-4.17,0,*59
1514743496.92,19820,7.38,72960.5,-2.63,-4.17,-4.17,0,*55
1514743498.16,19821,7.44,72954.5,-2.67,-4.25,-4.21,0,*54
1514743499.39,19822,7.44,72946.5,-2.67,-4.25,-4.21,0,*57
1514743500.58,19823,7.44,72954.5,-2.65,-4.17,-4.09,0,*5F
1514743501.81,19824,7.38,72962.5,-2.67,-4.13,-4.13,0,*55
1514743503.0,19825,7.44,72968.3,-2.65,-4.17,-4.17,0,*56
1514743504.21,19826,7.44,72958.0,-2.65,-4.21,-4.21,0,*55
1514743505.44,19827,7.38,72958.3,-2.67,-4.21,-4.21,0,*56
1514743506.66,19828,7.38,72962.5,-2.67,-4.13,-4.13,0,*59
1514743507.89,19829,7.44,72954.0,-2.67,-4.13,-4.21,0,*59
1514743509.12,19830,7.44,72948.3,-2.67,-4.21,-4.13,0,*51
1514743510.32,19831,7.38,72954.5,-2.73,-4.25,-4.17,0,*55
1514743511.52,19832,7.44,72964.3,-2.69,-4.13,-4.13,0,*5C
1514743512.73,19833,7.44,72966.0,-2.69,-4.13,-4.09,0,*56
1514743513.92,19834,7.44,72968.3,-2.73,-4.05,-4.05,0,*51
1514743515.15,19835,7.44,72964.8,-2.69,-4.01,-3.95,0,*51
1514743516.38,19836,7.44,72970.3,-2.73,-4.01,-3.91,0,*5D
1514743517.59,19837,7.44,72952.3,-2.73,-3.91,-3.79,0,*54
1514743518.79,19838,7.38,72954.3,-2.73,-3.87,-3.91,0,*5A
1514743520.0,19839,7.44,72958.5,-2.73,-3.79,-3.91,0,*5A
1514743521.19,19840,7.38,72958.8,-2.73,-3.87,-3.79,0,*53
1514743522.4,19841,7.44,72964.8,-2.73,-3.79,-3.79,0,*53
1514743523.63,19842,7.38,72976.3,-2.69,-3.75,-3.71,0,*5F
1514743524.88,19843,7.38,72976.0,-2.67,-3.75,-3.71,0,*50
1514743526.1,19844,7.38,72974.8,-2.73,-3.75,-3.67,0,*55
1514743527.34,19845,7.38,72974.8,-2.73,-3.67,-3.63,0,*53
1514743528.58,19846,7.44,72972.5,-2.73,-3.59,-3.55,0,*58
1514743529.83,19847,7.44,72966.5,-2.69,-3.51,-3.59,0,*56
1514743531.08,19848,7.44,72964.8,-2.69,-3.51,-3.51,0,*51
1514743532.32,19849,7.44,72966.5,-2.73,-3.55,-3.55,0,*5B
1514743533.56,19850,7.44,72966.5,-2.69,-3.47,-3.47,0,*58
1514743534.81,19851,7.44,72970.8,-2.69,-3.47,-3.47,0,*59
1514743536.06,19852,7.44,72976.5,-2.69,-3.47,-3.47,0,*5A
1514743537.3,19853,7.38,72976.0,-2.69,-3.47,-3.47,0,*5B
1514743538.55,19854,7.38,72976.8,-2.69,-3.47,-3.43,0,*58
1514743539.81,19855,7.44,72978.5,-2.69,-3.47,-3.43,0,*59
1514743541.05,19856,7.44,72976.5,-2.69,-3.43,-3.43,0,*5E
1514743542.3,19857,7.44,72980.5,-2.69,-3.43,-3.47,0,*5B
1514743543.54,19858,7.44,72976.3,-2.69,-3.43,-3.43,0,*50
1514743544.81,19859,7.44,72974.5,-2.67,-3.43,-3.43,0,*5F
1514743546.06,19860,7.44,72974.5,-2.67,-3.43,-3.39,0,*58
1514743547.28,19861,7.44,72972.5,-2.67,-3.35,-3.31,0,*50
1514743548.5,19862,7.38,72972.3,-2.67,-3.31,-3.31,0,*57
1514743549.75,19863,7.38,72970.5,-2.67,-3.35,-3.43,0,*57
1514743551.02,19864,7.44,72972.8,-2.67,-3.43,-3.43,0,*51
1514743552.24,19865,7.38,72968.5,-2.65,-3.43,-3.39,0,*5F
1514743553.46,19866,7.44,72970.0,-2.65,-3.43,-3.39,0,*5C
1514743554.73,19867,7.38,72968.0,-2.67,-3.47,-3.43,0,*56
1514743555.99,19868,7.38,72966.5,-2.67,-3.43,-3.43,0,*5D
1514743557.21,19869,7.38,72962.8,-2.65,-3.39,-3.43,0,*53
1514743558.48,19870,7.44,72956.3,-2.67,-3.43,-3.43,0,*54
1514743559.7,19871,7.44,72964.8,-2.65,-3.43,-3.31,0,*52
1514743560.89,19872,7.44,72960.8,-2.65,-3.39,-3.39,0,*54
1514743562.09,19873,7.44,72964.8,-2.65,-3.31,-3.39,0,*5D
1514743563.29,19874,7.44,72966.8,-2.65,-3.39,-3.39,0,*52
1514743564.56,19875,7.38,72964.5,-2.67,-3.47,-3.43,0,*55
1514743565.83,19876,7.38,72964.5,-2.67,-3.47,-3.43,0,*56
1514743567.03,19877,7.44,72970.5,-2.65,-3.39,-3.39,0,*51
1514743568.27,19878,7.44,72974.3,-2.65,-3.43,-3.43,0,*5E
1514743569.49,19879,7.44,72974.8,-2.65,-3.39,-3.43,0,*52
1514743570.7,19880,7.44,72974.3,-2.65,-3.43,-3.39,0,*54
1514743571.92,19881,7.44,72968.3,-2.65,-3.39,-3.43,0,*55
1514743573.14,19882,7.44,72968.5,-2.65,-3.39,-3.43,0,*56
1514743574.34,19883,7.44,72970.5,-2.65,-3.39,-3.39,0,*5A
1514743575.54,19884,7.38,72970.5,-2.65,-3.39,-3.39,0,*5D
1514743576.73,19885,7.44,72968.0,-2.65,-3.39,-3.39,0,*5C
1514743577.93,19886,7.44,72968.3,-2.65,-3.39,-3.39,0,*5F
1514743579.13,19887,7.44,72978.3,-2.65,-3.31,-3.27,0,*59
1514743580.33,19888,7.38,72980.0,-2.65,-3.27,-3.31,0,*56
1514743581.52,19889,7.44,72984.3,-2.65,-3.27,-3.31,0,*57
1514743582.73,19890,7.44,72980.5,-2.65,-3.31,-3.27,0,*5F
1514743583.95,19891,7.44,72980.5,-2.63,-3.31,-3.31,0,*5F
1514743585.17,19892,7.44,72982.8,-2.63,-3.39,-3.31,0,*54
1514743586.4,19893,7.44,72976.8,-2.63,-3.39,-3.39,0,*5D
1514743587.64,19894,7.38,72978.3,-2.63,-3.39,-3.43,0,*57
1514743588.86,19895,7.44,72982.5,-2.63,-3.39,-3.31,0,*53
1514743590.09,19896,7.38,72986.3,-2.63,-3.31,-3.31,0,*58
1514743591.31,19897,7.44,72982.8,-2.63,-3.39,-3.39,0,*59
1514743592.58,19898,7.38,72970.5,-2.63,-3.43,-3.43,0,*56
1514743593.8,19899,7.44,72972.3,-2.63,-3.39,-3.39,0,*57
1514743595.05,19900,7.44,72974.5,-2.63,-3.39,-3.43,0,*5B
1514743596.3,19901,7.44,72972.8,-2.63,-3.43,-3.39,0,*5A
1514743597.49,19902,7.44,72972.3,-2.61,-3.35,-3.35,0,*56
1514743598.74,19903,7.44,72978.5,-2.63,-3.39,-3.43,0,*58
1514743599.96,19904,7.44,72976.0,-2.63,-3.39,-3.39,0,*52
1514743601.19,19905,7.38,72972.8,-2.63,-3.39,-3.39,0,*53
1514743602.39,19906,7.44,72976.8,-2.61,-3.35,-3.35,0,*52
1514743603.61,19907,7.38,72974.0,-2.63,-3.31,-3.39,0,*59
1514743604.84,19908,7.44,72976.3,-2.63,-3.31,-3.31,0,*5E
1514743606.03,19909,7.44,72980.8,-2.61,-3.23,-3.27,0,*59
1514743607.28,19910,7.44,72980.8,-2.63,-3.39,-3.43,0,*5A
1514743608.47,19911,7.38,72980.8,-2.61,-3.39,-3.39,0,*54
1514743609.67,19912,7.44,72980.8,-2.61,-3.39,-3.39,0,*57
1514743610.94,19913,7.44,72978.8,-2.63,-3.43,-3.43,0,*54
1514743612.21,19914,7.44,72976.5,-2.63,-3.43,-3.43,0,*53
1514743613.47,19915,7.44,72974.5,-2.63,-3.47,-3.47,0,*52
1514743614.74,19916,7.44,72970.8,-2.63,-3.47,-3.47,0,*51
1514743616.01,19917,7.44,72970.0,-2.63,-3.47,-3.47,0,*50
1514743617.28,19918,7.44,72960.0,-2.63,-3.47,-3.47,0,*5F
1514743618.52,19919,7.44,72958.8,-2.61,-3.63,-3.51,0,*5D
1514743619.76,19920,7.38,72950.0,-2.61,-3.51,-3.51,0,*56
1514743621.03,19921,7.44,72956.5,-2.63,-3.59,-3.55,0,*59
1514743622.3,19922,7.44,72956.5,-2.63,-3.47,-3.47,0,*56
1514743623.57,19923,7.44,72956.8,-2.63,-3.47,-3.47,0,*57
1514743624.84,19924,7.44,72970.5,-2.63,-3.47,-3.43,0,*54
1514743626.08,19925,7.44,72978.3,-2.61,-3.51,-3.51,0,*53
1514743627.35,19926,7.44,72982.0,-2.63,-3.59,-3.55,0,*5E
1514743628.59,19927,7.44,72980.0,-2.65,-3.59,-3.59,0,*55
1514743629.84,19928,7.44,72982.8,-2.65,-3.59,-3.59,0,*5A
1514743631.08,19929,7.44,72986.8,-2.65,-3.59,-3.67,0,*56
1514743632.33,19930,7.44,72980.5,-2.65,-3.71,-3.59,0,*59
1514743633.57,19931,7.44,72970.8,-2.65,-3.67,-3.59,0,*5F
1514743634.82,19932,7.44,72976.0,-2.65,-3.67,-3.59,0,*5C
1514743636.08,19933,7.44,72958.8,-2.63,-3.59,-3.55,0,*5A
1514743637.32,19934,7.44,72952.3,-2.65,-3.55,-3.47,0,*54
1514743638.56,19935,7.44,72956.0,-2.65,-3.55,-3.47,0,*55
1514743639.83,19936,7.44,72954.0,-2.67,-3.51,-3.51,0,*57
1514743641.06,19937,7.44,72962.3,-2.65,-3.55,-3.55,0,*54
1514743642.3,19938,7.44,72966.5,-2.65,-3.47,-3.47,0,*5B
1514743643.54,19939,7.38,72960.3,-2.65,-3.47,-3.47,0,*5A
1514743644.78,19940,7.38,72962.5,-2.65,-3.55,-3.47,0,*57
1514743646.05,19941,7.44,72960.3,-2.63,-3.47,-3.47,0,*53
1514743647.32,19942,7.44,72960.3,-2.67,-3.59,-3.59,0,*54
1514743648.56,19943,7.44,72958.8,-2.65,-3.59,-3.55,0,*5B
1514743649.84,19944,7.44,72966.8,-2.67,-3.63,-3.59,0,*5B
1514743651.07,19945,7.44,72974.8,-2.65,-3.55,-3.55,0,*51
1514743652.31,19946,7.44,72980.3,-2.65,-3.55,-3.55,0,*52
1514743653.58,19947,7.44,72982.3,-2.63,-3.47,-3.47,0,*55
1514743654.82,19948,7.44,72984.5,-2.65,-3.51,-3.47,0,*5B
1514743656.06,19949,7.44,72994.3,-2.65,-3.55,-3.59,0,*51
1514743657.34,19950,7.38,72994.5,-2.67,-3.59,-3.59,0,*57
1514743658.57,19951,7.44,73004.5,-2.65,-3.55,-3.47,0,*57
1514743659.81,19952,7.44,72994.0,-2.65,-3.47,-3.47,0,*57
1514743661.05,19953,7.44,72990.0,-2.65,-3.59,-3.55,0,*5A
1514743662.29,19954,7.44,72986.5,-2.65,-3.55,-3.55,0,*51
1514743663.53,19955,7.44,72986.5,-2.65,-3.47,-3.55,0,*53
1514743664.77,19956,7.44,72986.3,-2.65,-3.59,-3.55,0,*5F
1514743666.04,19957,7.44,72982.8,-2.67,-3.51,-3.59,0,*58
1514743667.28,19958,7.44,72984.5,-2.65,-3.59,-3.55,0,*51
1514743668.56,19959,7.44,72978.3,-2.67,-3.59,-3.59,0,*5E
1514743669.8,19960,7.44,72976.3,-2.65,-3.59,-3.47,0,*59
1514743671.04,19961,7.38,72976.8,-2.65,-3.55,-3.47,0,*54
1514743672.28,19962,7.44,72978.8,-2.65,-3.47,-3.55,0,*57
1514743673.55,19963,7.44,72986.3,-2.67,-3.59,-3.51,0,*5F
1514743674.79,19964,7.44,72986.5,-2.65,-3.47,-3.47,0,*52
1514743676.06,19965,7.44,72984.8,-2.67,-3.51,-3.51,0,*51
1514743677.33,19966,7.44,72976.5,-2.67,-3.51,-3.51,0,*52
1514743678.57,19967,7.44,72986.0,-2.65,-3.47,-3.47,0,*51
1514743679.81,19968,7.44,72988.3,-2.65,-3.47,-3.47,0,*5E
1514743681.05,19969,7.44,72974.5,-2.65,-3.47,-3.47,0,*5F
1514743682.29,19970,7.44,72968.3,-2.65,-3.47,-3.47,0,*57
1514743683.53,19971,7.44,72958.8,-2.65,-3.47,-3.47,0,*56
1514743684.77,19972,7.38,72964.8,-2.65,-3.47,-3.47,0,*55
1514743686.03,19973,7.44,72970.0,-2.67,-3.47,-3.47,0,*56
1514743687.27,19974,7.44,72976.8,-2.65,-3.43,-3.47,0,*57
1514743688.51,19975,7.44,72980.0,-2.65,-3.47,-3.47,0,*52
1514743689.75,19976,7.44,72980.8,-2.65,-3.47,-3.47,0,*51
1514743691.02,19977,7.44,72980.3,-2.63,-3.47,-3.47,0,*56
1514743692.26,19978,7.44,72984.5,-2.65,-3.47,-3.55,0,*5C
1514743693.53,19979,7.44,72982.3,-2.67,-3.51,-3.59,0,*54
1514743694.77,19980,7.44,72982.5,-2.65,-3.47,-3.47,0,*58
1514743696.01,19981,7.44,72988.0,-2.65,-3.47,-3.47,0,*59
1514743697.25,19982,7.44,72978.8,-2.65,-3.55,-3.47,0,*59
1514743698.49,19983,7.44,72984.8,-2.65,-3.47,-3.47,0,*5B
1514743699.73,19984,7.44,72988.3,-2.65,-3.47,-3.47,0,*5C
1514743700.97,19985,7.44,72980.8,-2.65,-3.51,-3.47,0,*5A
1514743702.21,19986,7.44,72980.3,-2.65,-3.47,-3.47,0,*5E
1514743703.45,19987,7.44,72978.8,-2.65,-3.47,-3.47,0,*5F
1514743704.69,19988,7.44,72976.8,-2.65,-3.47,-3.47,0,*50
1514743705.93,19989,7.44,72978.5,-2.65,-3.55,-3.47,0,*52
1514743707.19,19990,7.44,72980.3,-2.67,-3.59,-3.47,0,*54
1514743708.47,19991,7.44,72990.0,-2.67,-3.59,-3.51,0,*52
1514743709.71,19992,7.44,72992.0,-2.65,-3.51,-3.47,0,*5C
1514743710.95,19993,7.44,72986.5,-2.65,-3.47,-3.47,0,*5A
1514743712.19,19994,7.44,72984.8,-2.65,-3.47,-3.47,0,*5D
1514743713.43,19995,7.44,72990.3,-2.65,-3.47,-3.47,0,*5C
1514743714.66,19996,7.44,72974.8,-2.65,-3.55,-3.47,0,*5C
1514743715.9,19997,7.44,72968.8,-2.65,-3.47,-3.47,0,*5E
1514743717.17,19998,7.44,72958.5,-2.67,-3.51,-3.51,0,*53
1514743718.41,19999,7.38,72958.8,-2.65,-3.43,-3.47,0,*54